UAL237 KIAD-KTPA

Flight info

Callsign UAL237
Flight time N/A
Altitude 36000
Route CLTCH3 FLASK GOWBE BURGG BAAMF DADES2
Aircraft B739/M-SDE2E3FGHIRWXY/LB1

Departure

Time 2026-05-07 20:37
Airport Washington Dulles International Airport (KIAD)

Arrival

Time N/A
Airport Tampa International Airport (KTPA)
Time Latitude Longitude Altitude Speed Heading
2026-05-07 20:17 38.95148 -77.44723 302 ft 0 kts
2026-05-07 20:23 38.95129 -77.44725 301 ft 3 kts
2026-05-07 20:23 38.95111 -77.44727 299 ft 3 kts
2026-05-07 20:23 38.95093 -77.44730 300 ft 3 kts
2026-05-07 20:24 38.95081 -77.44731 301 ft 0 kts
2026-05-07 20:32 38.95096 -77.44749 301 ft 7 kts 301°
2026-05-07 20:32 38.95108 -77.44857 299 ft 16 kts 274°
2026-05-07 20:32 38.95110 -77.45012 299 ft 18 kts 269°
2026-05-07 20:33 38.95109 -77.45188 299 ft 23 kts 270°
2026-05-07 20:33 38.95111 -77.45420 299 ft 28 kts 271°
2026-05-07 20:33 38.95075 -77.45596 301 ft 22 kts 203°
2026-05-07 20:33 38.94894 -77.45610 301 ft 30 kts 181°
2026-05-07 20:34 38.94747 -77.45609 299 ft 34 kts 179°
2026-05-07 20:34 38.94492 -77.45612 301 ft 39 kts 180°
2026-05-07 20:34 38.94202 -77.45616 299 ft 44 kts 180°
2026-05-07 20:34 38.93928 -77.45619 301 ft 36 kts 180°
2026-05-07 20:35 38.93733 -77.45624 299 ft 27 kts 187°
2026-05-07 20:35 38.93571 -77.45604 302 ft 25 kts 116°
2026-05-07 20:35 38.93452 -77.45555 300 ft 13 kts 200°
2026-05-07 20:35 38.93378 -77.45612 299 ft 12 kts 232°
2026-05-07 20:36 38.93391 -77.45715 300 ft 13 kts 291°
2026-05-07 20:36 38.93511 -77.46110 299 ft 89 kts 291°
2026-05-07 20:36 38.93822 -77.47160 303 ft 159 kts 291°
2026-05-07 20:36 38.94255 -77.48616 719 ft 184 kts 291°
2026-05-07 20:37 38.94679 -77.50105 1566 ft 167 kts 292°
2026-05-07 20:37 38.95037 -77.51501 2254 ft 165 kts 282°
2026-05-07 20:37 38.94766 -77.52897 2839 ft 170 kts 230°
2026-05-07 20:37 38.93750 -77.53657 3534 ft 166 kts 208°
2026-05-07 20:38 38.92729 -77.54310 4083 ft 169 kts 209°
2026-05-07 20:38 38.91579 -77.55057 4212 ft 200 kts 209°
2026-05-07 20:38 38.90290 -77.55904 4537 ft 215 kts 211°
2026-05-07 20:38 38.89011 -77.56863 5232 ft 210 kts 214°
2026-05-07 20:39 38.87732 -77.57809 5818 ft 213 kts 214°
2026-05-07 20:39 38.86449 -77.58754 6460 ft 212 kts 215°
2026-05-07 20:39 38.85178 -77.59695 7112 ft 210 kts 215°
2026-05-07 20:39 38.83921 -77.60635 7751 ft 207 kts 216°
2026-05-07 20:40 38.82696 -77.61560 8391 ft 205 kts 218°
2026-05-07 20:40 38.81475 -77.62485 9043 ft 203 kts 219°
2026-05-07 20:40 38.80268 -77.63402 9722 ft 200 kts 220°
2026-05-07 20:40 38.79081 -77.64308 10320 ft 197 kts 220°
2026-05-07 20:41 38.77893 -77.65219 10672 ft 210 kts 219°
2026-05-07 20:41 38.76558 -77.66258 10686 ft 237 kts 219°
2026-05-07 20:41 38.75072 -77.67410 10869 ft 261 kts 218°
2026-05-07 20:41 38.73443 -77.68667 11064 ft 285 kts 217°
2026-05-07 20:42 38.71699 -77.70008 11243 ft 307 kts 217°
2026-05-07 20:42 38.69800 -77.71464 11385 ft 328 kts 216°
2026-05-07 20:42 38.67782 -77.73009 11546 ft 347 kts 216°
2026-05-07 20:42 38.65665 -77.74624 11870 ft 359 kts 216°
2026-05-07 20:43 38.63509 -77.76266 12461 ft 361 kts 216°
2026-05-07 20:43 38.61384 -77.77883 13137 ft 362 kts 216°
2026-05-07 20:43 38.59219 -77.79533 13788 ft 363 kts 216°
2026-05-07 20:43 38.57039 -77.81197 14306 ft 366 kts 216°
2026-05-07 20:44 38.54836 -77.82882 14802 ft 370 kts 216°
2026-05-07 20:44 38.52620 -77.84574 15295 ft 373 kts 216°
2026-05-07 20:44 38.50376 -77.86287 15807 ft 376 kts 216°
2026-05-07 20:44 38.48122 -77.88005 16252 ft 380 kts 217°
2026-05-07 20:45 38.45969 -77.89871 16696 ft 378 kts 224°
2026-05-07 20:45 38.44046 -77.92141 17184 ft 377 kts 231°
2026-05-07 20:45 38.42388 -77.94726 17647 ft 376 kts 238°
2026-05-07 20:45 38.40886 -77.97478 18187 ft 377 kts 239°
2026-05-07 20:46 38.39383 -78.00224 18693 ft 377 kts 239°
2026-05-07 20:46 38.37875 -78.02964 19163 ft 378 kts 239°
2026-05-07 20:46 38.36359 -78.05711 19606 ft 379 kts 239°
2026-05-07 20:46 38.34834 -78.08465 20042 ft 381 kts 239°
2026-05-07 20:47 38.33304 -78.11218 20488 ft 382 kts 239°
2026-05-07 20:47 38.31764 -78.13989 20934 ft 383 kts 239°
2026-05-07 20:47 38.30218 -78.16764 21367 ft 384 kts 239°
2026-05-07 20:47 38.28665 -78.19549 21766 ft 384 kts 239°
2026-05-07 20:48 38.27127 -78.22305 22354 ft 381 kts 239°
2026-05-07 20:48 38.25592 -78.25054 22709 ft 383 kts 239°
2026-05-07 20:48 38.24064 -78.27790 23036 ft 385 kts 239°
2026-05-07 20:48 38.22513 -78.30565 23391 ft 386 kts 239°
2026-05-07 20:49 38.20956 -78.33348 23711 ft 386 kts 239°
2026-05-07 20:49 38.19397 -78.36131 24004 ft 386 kts 239°
2026-05-07 20:49 38.17837 -78.38912 24307 ft 387 kts 239°
2026-05-07 20:49 38.16245 -78.41683 24610 ft 387 kts 238°
2026-05-07 20:50 38.14618 -78.44419 24891 ft 388 kts 238°
2026-05-07 20:50 38.12977 -78.47144 25170 ft 389 kts 238°
2026-05-07 20:50 38.11335 -78.49865 25436 ft 389 kts 238°
2026-05-07 20:50 38.09685 -78.52601 25690 ft 389 kts 238°
2026-05-07 20:51 38.08049 -78.55317 26001 ft 385 kts 238°
2026-05-07 20:51 38.06435 -78.57999 26429 ft 380 kts 238°
2026-05-07 20:51 38.04851 -78.60634 26744 ft 378 kts 238°
2026-05-07 20:51 38.03238 -78.63320 27011 ft 377 kts 238°
2026-05-07 20:52 38.01671 -78.65928 27336 ft 375 kts 239°
2026-05-07 20:52 38.00077 -78.68579 27708 ft 373 kts 239°
2026-05-07 20:52 37.98516 -78.71176 27823 ft 377 kts 239°
2026-05-07 20:52 37.96924 -78.73823 27978 ft 378 kts 239°
2026-05-07 20:53 37.95330 -78.76469 28363 ft 374 kts 239°
2026-05-07 20:53 37.93763 -78.79063 28844 ft 369 kts 239°
2026-05-07 20:53 37.92209 -78.81632 29306 ft 365 kts 239°
2026-05-07 20:53 37.90664 -78.84187 29707 ft 363 kts 239°
2026-05-07 20:54 37.89137 -78.86714 30086 ft 360 kts 239°
2026-05-07 20:54 37.87615 -78.89231 30390 ft 359 kts 239°
2026-05-07 20:54 37.86100 -78.91737 30660 ft 358 kts 239°
2026-05-07 20:54 37.84584 -78.94238 30931 ft 358 kts 239°
2026-05-07 20:55 37.83071 -78.96728 31203 ft 357 kts 239°
2026-05-07 20:55 37.81562 -78.99219 31441 ft 357 kts 240°
2026-05-07 20:55 37.80049 -79.01714 31742 ft 356 kts 240°
2026-05-07 20:55 37.78544 -79.04191 32054 ft 355 kts 240°
2026-05-07 20:56 37.77042 -79.06662 32363 ft 355 kts 240°
2026-05-07 20:56 37.75535 -79.09141 32515 ft 357 kts 240°
2026-05-07 20:56 37.74016 -79.11634 32699 ft 358 kts 240°
2026-05-07 20:56 37.72518 -79.14093 32903 ft 358 kts 240°
2026-05-07 20:57 37.71004 -79.16575 33184 ft 356 kts 240°
2026-05-07 20:57 37.69491 -79.19051 33479 ft 354 kts 240°
2026-05-07 20:57 37.68010 -79.21494 33815 ft 349 kts 241°
2026-05-07 20:57 37.66556 -79.23938 34092 ft 346 kts 241°
2026-05-07 20:58 37.65119 -79.26368 34350 ft 345 kts 242°
2026-05-07 20:58 37.63683 -79.28800 34573 ft 345 kts 241°
2026-05-07 20:58 37.62250 -79.31224 34787 ft 344 kts 241°
2026-05-07 20:58 37.60819 -79.33643 34972 ft 345 kts 241°
2026-05-07 20:59 37.59383 -79.36066 35099 ft 346 kts 241°
2026-05-07 20:59 37.57936 -79.38505 35234 ft 348 kts 241°
2026-05-07 20:59 37.56484 -79.40948 35282 ft 349 kts 241°
2026-05-07 20:59 37.55021 -79.43404 35475 ft 349 kts 241°
2026-05-07 21:00 37.53566 -79.45845 35649 ft 348 kts 241°
2026-05-07 21:00 37.52111 -79.48287 35766 ft 349 kts 241°
2026-05-07 21:00 37.50653 -79.50732 35888 ft 349 kts 241°
2026-05-07 21:00 37.49203 -79.53163 36010 ft 347 kts 241°
2026-05-07 21:01 37.47763 -79.55573 36013 ft 347 kts 241°
2026-05-07 21:01 37.44857 -79.60428 36059 ft 348 kts 241°
2026-05-07 21:02 37.41940 -79.65294 36056 ft 348 kts 241°
2026-05-07 21:02 37.39026 -79.70151 36049 ft 348 kts 241°
2026-05-07 21:03 37.36110 -79.75006 36037 ft 347 kts 241°
2026-05-07 21:03 37.33198 -79.79844 36079 ft 347 kts 242°
2026-05-07 21:04 37.30290 -79.84672 36055 ft 346 kts 242°
2026-05-07 21:04 37.27386 -79.89484 35964 ft 345 kts 242°
2026-05-07 21:05 37.24517 -79.94229 36050 ft 343 kts 242°
2026-05-07 21:05 37.21631 -79.99001 36059 ft 343 kts 242°
2026-05-07 21:06 37.18741 -80.03771 36069 ft 343 kts 242°
2026-05-07 21:06 37.15847 -80.08539 36075 ft 343 kts 242°
2026-05-07 21:07 37.12952 -80.13305 36075 ft 344 kts 242°
2026-05-07 21:07 37.10049 -80.18075 36090 ft 344 kts 242°
2026-05-07 21:08 37.07139 -80.22852 36011 ft 345 kts 242°
2026-05-07 21:08 37.04233 -80.27616 36063 ft 345 kts 242°
2026-05-07 21:09 37.01133 -80.32254 36068 ft 353 kts 236°
2026-05-07 21:09 36.97370 -80.36324 36066 ft 359 kts 232°
2026-05-07 21:10 36.93558 -80.40315 36064 ft 359 kts 232°
2026-05-07 21:10 36.89738 -80.44322 36072 ft 358 kts 232°
2026-05-07 21:11 36.85921 -80.48333 36076 ft 359 kts 232°
2026-05-07 21:11 36.80195 -80.54347 36090 ft 358 kts 232°
2026-05-07 21:12 36.76376 -80.58355 36061 ft 359 kts 232°
2026-05-07 21:12 36.72567 -80.62342 36060 ft 360 kts 232°
2026-05-07 21:13 36.68729 -80.66356 36059 ft 360 kts 232°
2026-05-07 21:13 36.64877 -80.70377 36059 ft 360 kts 232°
2026-05-07 21:14 36.62973 -80.72364 35949 ft 360 kts 232°
2026-05-07 21:14 36.61069 -80.74349 36013 ft 359 kts 231°
2026-05-07 21:14 36.57234 -80.78344 36041 ft 359 kts 232°
2026-05-07 21:15 36.53375 -80.82360 36032 ft 360 kts 232°
2026-05-07 21:15 36.49545 -80.86341 36037 ft 361 kts 232°
2026-05-07 21:16 36.45665 -80.90366 36043 ft 362 kts 232°
2026-05-07 21:16 36.41815 -80.94353 36062 ft 362 kts 232°
2026-05-07 21:17 36.37942 -80.98358 36063 ft 361 kts 232°
2026-05-07 21:17 36.34083 -81.02348 36075 ft 362 kts 232°
2026-05-07 21:18 36.30194 -81.06362 36083 ft 363 kts 232°
2026-05-07 21:18 36.26325 -81.10348 36085 ft 363 kts 231°
2026-05-07 21:19 36.22453 -81.14333 36094 ft 363 kts 232°
2026-05-07 21:19 36.18568 -81.18327 36086 ft 363 kts 231°
2026-05-07 21:20 36.14668 -81.22331 36046 ft 362 kts 231°
2026-05-07 21:20 36.10785 -81.26311 36053 ft 363 kts 231°
2026-05-07 21:21 36.06904 -81.30287 36037 ft 364 kts 231°
2026-05-07 21:21 36.03016 -81.34264 36013 ft 365 kts 231°
2026-05-07 21:22 35.99754 -81.37594 35997 ft 365 kts 231°
2026-05-07 21:22 35.96997 -81.40085 35980 ft 376 kts 225°
2026-05-07 21:22 35.95476 -81.41170 35977 ft 383 kts 220°
2026-05-07 21:23 35.89771 -81.44391 35957 ft 387 kts 219°
2026-05-07 21:23 35.84841 -81.47154 36003 ft 388 kts 219°
2026-05-07 21:24 35.79960 -81.49901 36018 ft 388 kts 219°
2026-05-07 21:24 35.75860 -81.52210 36021 ft 388 kts 219°
2026-05-07 21:25 35.70929 -81.54986 36000 ft 388 kts 219°
2026-05-07 21:25 35.66042 -81.57734 36039 ft 388 kts 219°
2026-05-07 21:26 35.61118 -81.60500 36011 ft 388 kts 219°
2026-05-07 21:26 35.56226 -81.63243 36000 ft 387 kts 219°
2026-05-07 21:27 35.51313 -81.65995 36001 ft 387 kts 219°
2026-05-07 21:27 35.46426 -81.68730 35972 ft 387 kts 219°
2026-05-07 21:28 35.41518 -81.71472 35995 ft 388 kts 219°
2026-05-07 21:28 35.36606 -81.74213 35990 ft 388 kts 219°
2026-05-07 21:29 35.31693 -81.76950 35993 ft 390 kts 219°
2026-05-07 21:29 35.26763 -81.79694 35986 ft 391 kts 219°
2026-05-07 21:30 35.21799 -81.82451 35904 ft 390 kts 218°
2026-05-07 21:30 35.16868 -81.85186 35978 ft 389 kts 218°
2026-05-07 21:31 35.11917 -81.87932 35987 ft 390 kts 218°
2026-05-07 21:31 35.06976 -81.90667 35986 ft 391 kts 218°
2026-05-07 21:32 35.04440 -81.91892 35980 ft 403 kts 212°
2026-05-07 21:32 35.01670 -81.92771 35996 ft 414 kts 206°
2026-05-07 21:32 34.98751 -81.93221 35994 ft 428 kts 200°
2026-05-07 21:32 34.95795 -81.93491 35963 ft 428 kts 199°
2026-05-07 21:33 34.89841 -81.94000 35984 ft 428 kts 199°
2026-05-07 21:33 34.83914 -81.94523 35992 ft 427 kts 200°
2026-05-07 21:34 34.78031 -81.95063 35989 ft 426 kts 200°
2026-05-07 21:34 34.72111 -81.95615 35920 ft 425 kts 199°
2026-05-07 21:35 34.66203 -81.96164 35995 ft 424 kts 199°
2026-05-07 21:35 34.60377 -81.96708 36013 ft 423 kts 199°
2026-05-07 21:36 34.54471 -81.97259 36006 ft 423 kts 199°
2026-05-07 21:36 34.48635 -81.97801 36017 ft 423 kts 199°
2026-05-07 21:37 34.42779 -81.98344 36021 ft 422 kts 199°
2026-05-07 21:37 34.36903 -81.98888 36030 ft 423 kts 199°
2026-05-07 21:38 34.31049 -81.99430 36027 ft 423 kts 199°
2026-05-07 21:38 34.25158 -81.99975 36019 ft 424 kts 199°
2026-05-07 21:39 34.19283 -82.00517 35994 ft 424 kts 198°
2026-05-07 21:39 34.13408 -82.01057 36016 ft 425 kts 198°
2026-05-07 21:40 34.07497 -82.01601 36024 ft 426 kts 198°
2026-05-07 21:40 34.01562 -82.02147 36031 ft 428 kts 198°
2026-05-07 21:41 33.95614 -82.02693 35972 ft 429 kts 198°
2026-05-07 21:41 33.89688 -82.03234 36021 ft 430 kts 198°
2026-05-07 21:42 33.83704 -82.03781 36022 ft 431 kts 198°
2026-05-07 21:42 33.77713 -82.04328 36038 ft 432 kts 198°
2026-05-07 21:43 33.71733 -82.04872 36046 ft 432 kts 197°
2026-05-07 21:43 33.65754 -82.05416 36040 ft 432 kts 197°
2026-05-07 21:44 33.59770 -82.05958 36040 ft 432 kts 197°
2026-05-07 21:44 33.53745 -82.06506 36043 ft 432 kts 197°
2026-05-07 21:45 33.47769 -82.07048 36053 ft 433 kts 197°
2026-05-07 21:45 33.41785 -82.07590 35993 ft 432 kts 197°
2026-05-07 21:46 33.35778 -82.08129 36020 ft 430 kts 197°
2026-05-07 21:46 33.29844 -82.08665 36033 ft 429 kts 197°
2026-05-07 21:47 33.23868 -82.09204 36033 ft 429 kts 197°
2026-05-07 21:47 33.17939 -82.09739 36033 ft 428 kts 197°
2026-05-07 21:48 33.11988 -82.10275 36036 ft 428 kts 197°
2026-05-07 21:48 33.06059 -82.10808 36042 ft 429 kts 197°
2026-05-07 21:49 33.00086 -82.11343 36045 ft 429 kts 197°
2026-05-07 21:49 32.94171 -82.11874 36045 ft 430 kts 197°
2026-05-07 21:50 32.88188 -82.12406 36040 ft 430 kts 196°
2026-05-07 21:50 32.82250 -82.12936 36040 ft 430 kts 196°
2026-05-07 21:51 32.76270 -82.13471 36052 ft 431 kts 196°
2026-05-07 21:51 32.70286 -82.14006 36054 ft 432 kts 196°
2026-05-07 21:52 32.64298 -82.14539 36021 ft 433 kts 196°
2026-05-07 21:52 32.58286 -82.15072 36050 ft 433 kts 195°
2026-05-07 21:53 32.52262 -82.15606 36064 ft 433 kts 195°
2026-05-07 21:53 32.46257 -82.16139 36052 ft 435 kts 195°
2026-05-07 21:54 32.40249 -82.16670 36053 ft 435 kts 195°
2026-05-07 21:54 32.34241 -82.17201 36046 ft 436 kts 195°
2026-05-07 21:55 32.27862 -82.17764 36061 ft 438 kts 195°
2026-05-07 21:55 32.22052 -82.18277 36072 ft 440 kts 195°
2026-05-07 21:56 32.15951 -82.18815 36077 ft 442 kts 195°
2026-05-07 21:56 32.09818 -82.19353 36049 ft 443 kts 194°
2026-05-07 21:57 32.03663 -82.19892 36065 ft 444 kts 194°
2026-05-07 21:57 31.97523 -82.20429 36075 ft 445 kts 194°
2026-05-07 21:58 31.91358 -82.20969 36076 ft 445 kts 194°
2026-05-07 21:58 31.85173 -82.21509 36077 ft 445 kts 194°
2026-05-07 21:59 31.78977 -82.22049 36078 ft 445 kts 194°
2026-05-07 21:59 31.74157 -82.22469 36072 ft 446 kts 194°
2026-05-07 22:00 31.68017 -82.23004 36081 ft 446 kts 194°
2026-05-07 22:00 31.62382 -82.23494 36084 ft 447 kts 194°
2026-05-07 22:01 31.56039 -82.24045 36069 ft 448 kts 194°
2026-05-07 22:01 31.52650 -82.24339 36077 ft 448 kts 194°
2026-05-07 22:02 31.49781 -82.24588 36089 ft 448 kts 194°
2026-05-07 22:02 31.43551 -82.25128 36100 ft 449 kts 194°
2026-05-07 22:03 31.37296 -82.25669 36101 ft 450 kts 194°
2026-05-07 22:03 31.31047 -82.26209 36102 ft 451 kts 194°
2026-05-07 22:04 31.26598 -82.26593 36077 ft 452 kts 193°
2026-05-07 22:04 31.24536 -82.26770 36105 ft 452 kts 193°
2026-05-07 22:05 31.18811 -82.27264 36100 ft 454 kts 193°
2026-05-07 22:06 31.12423 -82.27814 36119 ft 455 kts 193°
2026-05-07 22:06 31.06195 -82.28349 36138 ft 456 kts 193°
2026-05-07 22:07 30.99787 -82.28899 36127 ft 457 kts 193°
2026-05-07 22:07 30.93518 -82.29435 36185 ft 458 kts 193°
2026-05-07 22:08 30.87094 -82.29985 36188 ft 458 kts 193°
2026-05-07 22:08 30.80809 -82.30522 36205 ft 459 kts 193°
2026-05-07 22:09 30.74370 -82.31071 36202 ft 459 kts 193°
2026-05-07 22:09 30.73456 -82.31149 36211 ft 459 kts 193°
2026-05-07 22:10 30.70740 -82.31381 36201 ft 458 kts 193°
2026-05-07 22:10 30.66236 -82.31765 36219 ft 458 kts 193°
2026-05-07 22:11 30.63862 -82.31967 36216 ft 458 kts 193°
2026-05-07 22:12 30.57758 -82.32499 36228 ft 458 kts 193°
2026-05-07 22:12 30.54545 -82.32781 36054 ft 462 kts 193°